Location: Chowchilla Mountain
(37.5599°N, 119.7546°W)
Time: 14:17:32
(UTC+00:00)

Cosmos 1674 Rocket - Pass Details

Date: 05 August 2024
Orbit: 599 x 625 km, 82.5° (Epoch: 16 September)

Event Time Altitude Azimuth Distance (km) Brightness Sun altitude
Rises 12:19:28 0° 357° (N) 2,918 7.4 -9.3°
Reaches altitude 10° 12:21:45 10° 1° (N) 2,008 6.6 -8.9°
Maximum altitude 12:26:08 59° 81° (E) 726 4.3 -8.1°
Drops below altitude 10° 12:30:30 10° 161° (SSE) 1,990 6.1 -7.4°
Sets 12:32:44 0° 165° (SSE) 2,890 6.9 -7.0°
